This is the latest recevied weather packets stored in our database for station/object WC4PEM-7. If no packets are shown the sender has not sent any weather packets the latest 10 day(s).
| Time | Temp. | Humidity | Pressure | Rain* | Wind** | Luminosity | Snow |
|---|---|---|---|---|---|---|---|
| 1777901017 | 22.78° C | 70% | 1016.8 hPa | 0 mm | - | - | - |
| 1777900897 | 22.22° C | 71% | 1016.8 hPa | 0 mm | - | - | - |
| 1777900717 | 22.22° C | 71% | 1016.8 hPa | 0 mm | - | - | - |
| 1777900417 | 22.22° C | 71% | 1016.8 hPa | 0 mm | - | - | - |
| 1777900117 | 22.22° C | 72% | 1016.8 hPa | 0 mm | - | - | - |
| 1777899817 | 21.67° C | 73% | 1016.7 hPa | 0 mm | - | - | - |
| 1777899517 | 21.67° C | 73% | 1016.8 hPa | 0 mm | - | - | - |
| 1777899217 | 21.67° C | 73% | 1016.7 hPa | 0 mm | - | - | - |
| 1777899165 | 21.67° C | 73% | 1016.7 hPa | 0 mm | - | - | - |
| 1777898918 | 21.67° C | 73% | 1016.7 hPa | 0 mm | - | - | - |
| 1777898808 | 21.67° C | 75% | 1016.6 hPa | 0 mm | - | - | - |
| 1777898665 | 21.11° C | 75% | 1016.6 hPa | 0 mm | - | - | - |
| 1777898617 | 21.67° C | 75% | 1016.6 hPa | 0 mm | - | - | - |
| 1777898397 | 21.11° C | 75% | 1016.7 hPa | 0 mm | - | - | - |
| 1777898317 | 21.11° C | 75% | 1016.6 hPa | 0 mm | - | - | - |
| 1777898018 | 21.11° C | 75% | 1016.7 hPa | 0 mm | - | - | - |
| 1777897717 | 20.56° C | 76% | 1016.5 hPa | 0 mm | - | - | - |
| 1777897418 | 20.56° C | 77% | 1016.5 hPa | 0 mm | - | - | - |
| 1777897118 | 20.56° C | 77% | 1016.5 hPa | 0 mm | - | - | - |
| 1777896818 | 20° C | 78% | 1016.5 hPa | 0 mm | - | - | - |
| 1777896518 | 20° C | 78% | 1016.5 hPa | 0 mm | - | - | - |
| 1777896218 | 20° C | 79% | 1016.4 hPa | 0 mm | - | - | - |
| 1777896098 | 19.44° C | 81% | 1016.3 hPa | 0 mm | - | - | - |
| 1777895918 | 19.44° C | 80% | 1016.5 hPa | 0 mm | - | - | - |
| 1777895903 | 19.44° C | 81% | 1016.3 hPa | 0 mm | - | - | - |
* Rain latest hour (hover to see other rain measurements)
** Current wind speed in m/s (hover to see current wind gust speed)